RYR33KN EPMO-LZIB

Flight info

Callsign RYR33KN
Flight time N/A
Altitude 36000
Route EVINA M66 BABKO/N0414F240 M866 NIDOK/N0361F140 R23 NIT
Aircraft B738/M-SDE2E3FGHIRWXY/LB1

Departure

Time 2026-04-20 13:34
Airport Warsaw Modlin Airport (EPMO)

Arrival

Time N/A
Airport M. R. Štefánik Airport (LZIB)
Time Latitude Longitude Altitude Speed Heading
2026-04-20 13:04 52.44738 20.65178 351 ft 0 kts 206°
2026-04-20 13:25 52.44745 20.65183 350 ft 2 kts 206°
2026-04-20 13:26 52.44758 20.65194 350 ft 2 kts 206°
2026-04-20 13:26 52.44768 20.65202 350 ft 0 kts 206°
2026-04-20 13:26 52.44770 20.65204 350 ft 1 kts 206°
2026-04-20 13:26 52.44783 20.65217 350 ft 2 kts 231°
2026-04-20 13:27 52.44790 20.65238 350 ft 2 kts 252°
2026-04-20 13:27 52.44792 20.65250 350 ft 1 kts 265°
2026-04-20 13:27 52.44792 20.65256 350 ft 0 kts 262°
2026-04-20 13:29 52.44791 20.65248 350 ft 4 kts 262°
2026-04-20 13:29 52.44782 20.65148 350 ft 13 kts 261°
2026-04-20 13:29 52.44764 20.64962 349 ft 16 kts 261°
2026-04-20 13:30 52.44744 20.64765 348 ft 18 kts 261°
2026-04-20 13:30 52.44725 20.64560 347 ft 18 kts 261°
2026-04-20 13:30 52.44704 20.64345 347 ft 19 kts 262°
2026-04-20 13:30 52.44684 20.64132 347 ft 18 kts 262°
2026-04-20 13:31 52.44665 20.63930 347 ft 17 kts 262°
2026-04-20 13:31 52.44647 20.63738 348 ft 16 kts 261°
2026-04-20 13:31 52.44630 20.63561 348 ft 15 kts 262°
2026-04-20 13:31 52.44681 20.63442 348 ft 14 kts 352°
2026-04-20 13:32 52.44782 20.63421 348 ft 14 kts 352°
2026-04-20 13:32 52.44884 20.63397 347 ft 14 kts 358°
2026-04-20 13:32 52.44961 20.63482 347 ft 14 kts 73°
2026-04-20 13:32 52.44971 20.63577 347 ft 1 kts 82°
2026-04-20 13:33 52.44971 20.63579 347 ft 0 kts 82°
2026-04-20 13:33 52.44972 20.63586 347 ft 5 kts 82°
2026-04-20 13:33 52.45009 20.63987 345 ft 70 kts 82°
2026-04-20 13:33 52.45119 20.65140 348 ft 131 kts 81°
2026-04-20 13:34 52.45272 20.66862 482 ft 167 kts 81°
2026-04-20 13:34 52.45448 20.68715 1189 ft 167 kts 80°
2026-04-20 13:34 52.45620 20.70582 1934 ft 167 kts 82°
2026-04-20 13:34 52.45834 20.72493 2271 ft 180 kts 78°
2026-04-20 13:35 52.46142 20.74551 2622 ft 193 kts 70°
2026-04-20 13:35 52.46888 20.76458 2951 ft 211 kts 47°
2026-04-20 13:35 52.48137 20.77841 3430 ft 227 kts 24°
2026-04-20 13:35 52.49772 20.78188 3848 ft 249 kts 359°
2026-04-20 13:36 52.51505 20.77745 4334 ft 261 kts 354°
2026-04-20 13:36 52.53279 20.77177 5000 ft 263 kts 354°
2026-04-20 13:36 52.55094 20.76649 5693 ft 265 kts 355°
2026-04-20 13:36 52.56911 20.76236 6362 ft 265 kts
2026-04-20 13:37 52.58700 20.76465 7033 ft 260 kts 20°
2026-04-20 13:37 52.60325 20.77724 7656 ft 259 kts 37°
2026-04-20 13:37 52.61678 20.79667 8263 ft 261 kts 49°
2026-04-20 13:37 52.62743 20.82097 8823 ft 264 kts 64°
2026-04-20 13:38 52.63258 20.84964 9411 ft 269 kts 82°
2026-04-20 13:38 52.63403 20.88051 10011 ft 272 kts 85°
2026-04-20 13:38 52.63506 20.91161 10428 ft 282 kts 85°
2026-04-20 13:38 52.63605 20.94492 10752 ft 295 kts 88°
2026-04-20 13:39 52.63388 20.97871 11212 ft 304 kts 103°
2026-04-20 13:39 52.62469 21.01041 11766 ft 314 kts 123°
2026-04-20 13:39 52.60915 21.03664 11977 ft 334 kts 141°
2026-04-20 13:39 52.58968 21.05867 12226 ft 350 kts 144°
2026-04-20 13:40 52.56887 21.08077 12475 ft 365 kts 145°
2026-04-20 13:40 52.54701 21.10375 12743 ft 379 kts 145°
2026-04-20 13:40 52.52461 21.12736 13229 ft 386 kts 145°
2026-04-20 13:40 52.50186 21.15141 13799 ft 391 kts 145°
2026-04-20 13:41 52.47916 21.17543 14375 ft 396 kts 146°
2026-04-20 13:41 52.45480 21.19766 14963 ft 401 kts 154°
2026-04-20 13:41 52.42811 21.21113 15537 ft 407 kts 171°
2026-04-20 13:41 52.39999 21.21188 16156 ft 408 kts 187°
2026-04-20 13:42 52.37250 21.20127 16767 ft 410 kts 201°
2026-04-20 13:42 52.32345 21.15503 18003 ft 408 kts 225°
2026-04-20 13:42 52.30438 21.12106 18628 ft 409 kts 232°
2026-04-20 13:43 52.28667 21.08459 19204 ft 412 kts 234°
2026-04-20 13:43 52.26963 21.04719 19799 ft 414 kts 234°
2026-04-20 13:43 52.25088 21.01114 20393 ft 418 kts 229°
2026-04-20 13:43 52.23038 20.97762 20931 ft 422 kts 225°
2026-04-20 13:44 52.20875 20.94516 21433 ft 427 kts 224°
2026-04-20 13:44 52.18633 20.91276 21936 ft 431 kts 223°
2026-04-20 13:44 52.16386 20.88075 22428 ft 434 kts 223°
2026-04-20 13:44 52.14092 20.84809 22927 ft 438 kts 223°
2026-04-20 13:45 52.11808 20.81548 23414 ft 441 kts 223°
2026-04-20 13:45 52.09508 20.78252 23902 ft 444 kts 223°
2026-04-20 13:45 52.07204 20.74938 24348 ft 448 kts 223°
2026-04-20 13:45 52.04873 20.71577 24760 ft 452 kts 223°
2026-04-20 13:46 52.02497 20.68149 25120 ft 457 kts 223°
2026-04-20 13:46 52.00107 20.64706 25440 ft 463 kts 223°
2026-04-20 13:46 51.97622 20.61312 25910 ft 465 kts 220°
2026-04-20 13:46 51.94967 20.58272 26377 ft 467 kts 213°
2026-04-20 13:47 51.92081 20.55737 26852 ft 468 kts 206°
2026-04-20 13:47 51.89121 20.53635 27292 ft 470 kts 203°
2026-04-20 13:47 51.86032 20.51706 27635 ft 473 kts 201°
2026-04-20 13:47 51.82923 20.49894 27796 ft 480 kts 200°
2026-04-20 13:48 51.79767 20.48111 28161 ft 482 kts 200°
2026-04-20 13:48 51.76643 20.46359 28621 ft 481 kts 200°
2026-04-20 13:48 51.73494 20.44592 29199 ft 477 kts 200°
2026-04-20 13:48 51.70375 20.42849 30005 ft 468 kts 199°
2026-04-20 13:49 51.67281 20.41370 30552 ft 465 kts 195°
2026-04-20 13:49 51.64170 20.40249 30982 ft 463 kts 191°
2026-04-20 13:49 51.60999 20.39421 31372 ft 462 kts 188°
2026-04-20 13:49 51.57817 20.38784 31654 ft 461 kts 187°
2026-04-20 13:50 51.54637 20.38252 31883 ft 461 kts 186°
2026-04-20 13:50 51.51440 20.37771 32179 ft 459 kts 186°
2026-04-20 13:50 51.48302 20.37321 32511 ft 455 kts 186°
2026-04-20 13:50 51.45143 20.36877 32740 ft 454 kts 186°
2026-04-20 13:51 51.41996 20.36421 32922 ft 455 kts 187°
2026-04-20 13:51 51.38869 20.35684 33065 ft 456 kts 192°
2026-04-20 13:51 51.35783 20.34531 33231 ft 456 kts 195°
2026-04-20 13:51 51.32776 20.33145 33390 ft 456 kts 197°
2026-04-20 13:52 51.29740 20.31605 33554 ft 456 kts 199°
2026-04-20 13:52 51.26707 20.30000 33717 ft 457 kts 199°
2026-04-20 13:52 51.23721 20.28400 33880 ft 457 kts 199°
2026-04-20 13:52 51.20736 20.26751 34017 ft 457 kts 200°
2026-04-20 13:53 51.17718 20.25092 34153 ft 458 kts 199°
2026-04-20 13:53 51.14674 20.23478 34319 ft 459 kts 199°
2026-04-20 13:53 51.11657 20.21910 34515 ft 458 kts 199°
2026-04-20 13:53 51.08656 20.20367 34710 ft 458 kts 199°
2026-04-20 13:54 51.05612 20.18809 34888 ft 458 kts 199°
2026-04-20 13:54 51.02596 20.17268 35065 ft 458 kts 199°
2026-04-20 13:54 50.99588 20.15733 35235 ft 458 kts 199°
2026-04-20 13:54 50.96538 20.14177 35403 ft 458 kts 199°
2026-04-20 13:55 50.93514 20.12635 35553 ft 458 kts 199°
2026-04-20 13:55 50.90505 20.11101 35709 ft 458 kts 199°
2026-04-20 13:55 50.87484 20.09562 35857 ft 458 kts 199°
2026-04-20 13:55 50.84460 20.08025 35975 ft 455 kts 199°
2026-04-20 13:56 50.78669 20.05088 36001 ft 440 kts 199°
2026-04-20 13:56 50.72892 20.02161 36002 ft 438 kts 199°
2026-04-20 13:57 50.67066 19.99212 35999 ft 439 kts 199°
2026-04-20 13:57 50.61304 19.96304 36001 ft 438 kts 199°
2026-04-20 13:58 50.55592 19.93430 35995 ft 438 kts 199°
2026-04-20 13:58 50.49787 19.90517 35994 ft 439 kts 199°
2026-04-20 13:59 50.43982 19.87610 35995 ft 439 kts 199°
2026-04-20 13:59 50.38205 19.84727 35993 ft 438 kts 199°
2026-04-20 14:00 50.32369 19.81821 35989 ft 439 kts 200°
2026-04-20 14:00 50.26561 19.78936 35982 ft 439 kts 200°
2026-04-20 14:01 50.20765 19.76065 35983 ft 439 kts 200°
2026-04-20 14:01 50.14932 19.73183 35982 ft 438 kts 200°
2026-04-20 14:02 50.09139 19.70328 35983 ft 438 kts 200°
2026-04-20 14:02 50.03355 19.67483 35983 ft 438 kts 200°
2026-04-20 14:03 49.97566 19.64644 35983 ft 438 kts 200°
2026-04-20 14:03 49.91750 19.61800 35976 ft 437 kts 200°
2026-04-20 14:04 49.85994 19.58992 35969 ft 438 kts 200°
2026-04-20 14:04 49.80189 19.56166 35963 ft 439 kts 200°
2026-04-20 14:05 49.74350 19.53331 35957 ft 440 kts 200°
2026-04-20 14:05 49.68509 19.50504 35950 ft 439 kts 200°
2026-04-20 14:06 49.62724 19.47594 35948 ft 438 kts 204°
2026-04-20 14:06 49.57214 19.43654 35942 ft 436 kts 212°
2026-04-20 14:07 49.51949 19.39030 35937 ft 436 kts 213°
2026-04-20 14:07 49.46751 19.34297 35930 ft 436 kts 213°
2026-04-20 14:08 49.41531 19.29579 35928 ft 437 kts 213°
2026-04-20 14:08 49.36291 19.24895 35932 ft 437 kts 213°
2026-04-20 14:09 49.31032 19.20233 35934 ft 437 kts 213°
2026-04-20 14:09 49.25768 19.15593 35943 ft 437 kts 213°
2026-04-20 14:10 49.20522 19.10984 35949 ft 436 kts 212°
2026-04-20 14:10 49.15244 19.06362 35954 ft 437 kts 213°
2026-04-20 14:11 49.10000 19.01781 35959 ft 437 kts 213°
2026-04-20 14:11 49.04741 18.97199 35955 ft 436 kts 213°
2026-04-20 14:12 48.99496 18.92640 35953 ft 436 kts 213°
2026-04-20 14:12 48.94206 18.88051 35934 ft 437 kts 213°
2026-04-20 14:13 48.91566 18.85765 35716 ft 438 kts 213°
2026-04-20 14:13 48.88983 18.83439 35327 ft 437 kts 216°
2026-04-20 14:13 48.86510 18.80856 34755 ft 435 kts 220°
2026-04-20 14:13 48.84127 18.77993 34072 ft 436 kts 223°
2026-04-20 14:14 48.81858 18.74999 33547 ft 434 kts 226°
2026-04-20 14:14 48.79633 18.71881 32878 ft 440 kts 226°
2026-04-20 14:14 48.77426 18.68677 32251 ft 444 kts 228°
2026-04-20 14:14 48.75259 18.65357 31912 ft 437 kts 229°
2026-04-20 14:15 48.73197 18.62126 31859 ft 422 kts 230°
2026-04-20 14:15 48.71211 18.58932 31880 ft 408 kts 231°
2026-04-20 14:15 48.67401 18.52620 31676 ft 411 kts 232°
2026-04-20 14:16 48.65505 18.49389 31460 ft 408 kts 232°
2026-04-20 14:16 48.63602 18.46219 31199 ft 401 kts 232°
2026-04-20 14:16 48.61760 18.43156 30824 ft 398 kts 232°
2026-04-20 14:16 48.59932 18.40013 29851 ft 408 kts 234°
2026-04-20 14:17 48.59210 18.38598 29415 ft 411 kts 237°
2026-04-20 14:17 48.57641 18.34997 28518 ft 415 kts 242°
2026-04-20 14:17 48.56270 18.31154 27735 ft 414 kts 246°
2026-04-20 14:17 48.55244 18.27234 27809 ft 392 kts 254°
2026-04-20 14:18 48.54534 18.23365 27620 ft 381 kts 257°
2026-04-20 14:18 48.53875 18.19513 26882 ft 385 kts 257°
2026-04-20 14:18 48.53239 18.15572 26286 ft 383 kts 258°
2026-04-20 14:18 48.52671 18.11693 24914 ft 396 kts 259°
2026-04-20 14:19 48.52142 18.07531 22609 ft 419 kts 261°
2026-04-20 14:19 48.51660 18.03206 20610 ft 429 kts 262°
2026-04-20 14:19 48.51221 17.98898 20260 ft 400 kts 263°
2026-04-20 14:19 48.50848 17.94926 19980 ft 376 kts 264°
2026-04-20 14:20 48.50515 17.91029 18596 ft 382 kts 264°
2026-04-20 14:20 48.50210 17.87065 16450 ft 402 kts 265°
2026-04-20 14:20 48.49936 17.82867 15280 ft 392 kts 266°
2026-04-20 14:20 48.49689 17.78960 15101 ft 366 kts 266°
2026-04-20 14:21 48.49444 17.75208 14485 ft 351 kts 266°
2026-04-20 14:21 48.49218 17.71686 14359 ft 323 kts 266°
2026-04-20 14:21 48.49004 17.68446 14296 ft 298 kts 266°
2026-04-20 14:21 48.48804 17.65456 14103 ft 279 kts 266°
2026-04-20 14:22 48.48664 17.62658 13997 ft 260 kts 274°
2026-04-20 14:22 48.49097 17.59999 12872 ft 281 kts 298°
2026-04-20 14:22 48.50415 17.57725 11295 ft 309 kts 323°
2026-04-20 14:22 48.52411 17.56423 10111 ft 332 kts 348°
2026-04-20 14:23 48.54724 17.56874 9008 ft 350 kts 23°